GW0119 Weather Reports


time (UTC)temp
C
wind
direction
speed
KPH
gust
KPH
rain 1hr
cm
rain 24hr
cm
rain mn
cm
humidity
%
barometer
mb
20260505040058 20 181 1.6 9.7 0.00 0.00 0.00 65 1011.1
20260505034544 20 181 4.8 9.7 0.00 0.00 0.00 65 1010.9
20260505033026 20 145 3.2 9.7 0.00 0.00 0.00 64 1011.1
20260505031520 21 169 3.2 9.7 0.00 0.00 0.00 63 1011.1
20260505030050 21 160 3.2 12.9 0.00 0.00 0.00 63 1010.8
20260505024528 21 178 1.6 12.9 0.00 0.00 0.00 63 1010.5
20260505023010 21 215 3.2 6.4 0.00 0.00 0.00 62 1010.4
20260505021547 21 115 3.2 12.9 0.00 0.00 0.00 61 1010.3
20260505020024 22 178 1.6 8.0 0.00 0.00 0.00 60 1010.1
20260505014504 22 147 4.8 11.3 0.00 0.00 0.00 59 1010.1
20260505013050 22 158 4.8 12.9 0.00 0.00 0.00 59 1010.0
20260505011529 22 77 1.6 6.4 0.00 0.00 0.00 57 1009.9
20260505010004 23 174 6.4 19.3 0.00 0.00 0.00 56 1009.9
20260505004546 23 160 4.8 12.9 0.00 0.00 0.00 56 1009.9
20260505003024 23 148 6.4 14.5 0.00 0.00 0.00 55 1009.8
20260505001506 23 145 1.6 9.7 0.00 0.00 0.00 55 1010.0
20260505000054 23 167 4.8 12.9 0.00 0.00 0.00 54 1009.9
20260504234525 24 189 9.7 17.7 0.00 0.00 0.00 53 1009.9
20260504233010 24 187 11.3 22.5 0.00 0.00 0.00 52 1009.9
20260504231548 24 152 4.8 27.4 0.00 0.00 0.00 52 1010.3
20260504230035 25 172 12.9 27.4 0.00 0.00 0.00 50 1010.4
20260504224515 25 18 8.0 22.5 0.00 0.00 0.00 50 1010.6
20260504223122 26 137 9.7 19.3 0.00 0.00 0.00 49 1010.7
20260504221536 25 131 6.4 19.3 0.00 0.00 0.00 49 1010.8
20260504220018 26 135 4.8 19.3 0.00 0.00 0.00 49 1011.0
20260504214551 26 152 8.0 30.6 0.00 0.00 0.00 48 1011.2
20260504213045 25 153 9.7 25.7 0.00 0.00 0.00 48 1011.2
20260504211520 26 120 11.3 27.4 0.00 0.00 0.00 47 1011.5
20260504210101 25 145 14.5 22.5 0.00 0.00 0.00 48 1011.5
20260504204547 25 206 14.5 27.4 0.00 0.00 0.00 47 1011.7
20260504203023 26 326 9.7 29.0 0.00 0.00 0.00 48 1011.9
20260504201604 26 174 9.7 27.4 0.00 0.00 0.00 47 1012.3
20260504201501 26 131 9.7 27.4 0.00 0.00 0.00 47 1012.2
20260504200036 25 193 11.3 24.1 0.00 0.00 0.00 48 1012.4
20260504194521 25 204 14.5 30.6 0.00 0.00 0.00 47 1012.6
20260504193005 25 110 9.7 27.4 0.00 0.00 0.00 47 1012.8
20260504191541 26 258 8.0 29.0 0.00 0.00 0.00 46 1013.3
20260504190022 25 160 8.0 16.1 0.00 0.00 0.00 47 1013.5
20260504184600 25 160 8.0 25.7 0.00 0.00 0.00 48 1013.7
20260504183043 25 236 11.3 37.0 0.00 0.00 0.00 46 1013.7
20260504181523 25 137 6.4 25.7 0.00 0.00 0.00 46 1014.0
20260504180003 25 87 4.8 20.9 0.00 0.00 0.00 48 1014.0
20260504174546 24 168 9.7 32.2 0.00 0.00 0.00 48 1014.2
20260504173025 24 141 11.3 24.1 0.00 0.00 0.00 48 1014.5
20260504171505 24 162 19.3 30.6 0.00 0.00 0.00 46 1014.6